Location: Atherton
(17.2661°S, 145.4859°E)
Time: 22:17:41
(UTC+10:00)

BlueWalker 3 - Pass Details

Date: 21 April 2026
Orbit: 447 x 458 km, 53.2° (Epoch: 11 May)

Event Time Altitude Azimuth Distance (km) Brightness Sun altitude
Rises 18:22:01 0° 353° (N) 2,455 5.7 -4.7°
Reaches altitude 10° 18:24:36 10° 12° (NNE) 1,589 4.5 -5.3°
Maximum altitude 18:27:08 18° 57° (ENE) 1,177 3.4 -5.9°
Drops below altitude 10° 18:29:41 10° 103° (ESE) 1,601 3.8 -6.5°
Enters shadow 18:30:11 - 108° (ESE) 1,748 4.0 -6.6°
